STARLINK-32534 (62175 NORAD) Tracking and Keplerian Element Data

This shows tracking and keplerian element data for the satellite.

Feedback or suggestion? Click here.




ElementValue
Catalog62175
NameSTARLINK-32534
Epoch Orbit593
Epoch Day34.83335648
Epoch Year2025
RAAN90.4956
Inclination69.9993
Eccentricity0.0003118
Argument of Perigee274.4722
Mean Anonmoly340.8393
Mean Motion15.15774625
Decay Rate-0.01413893
L11 62175U 24225N 25034.83335648 -.01413893 00000+0 -80502-1 0 9996
L22 62175 69.9993 90.4956 0003118 274.4722 340.8393 15.15774625 5932



Live tracking and technical data element details for STARLINK-32534 (NORAD 62175). STARLINK-32534 can be tracked NOW for your location showing map with azimuth and elevation plus other details from your city location.







IsCatalogInMostPopularTable: catalog: 62175, numindb: 14
Update: records affected: 1



GetName: 62175 STARLINK-32534

Hit Count: updated at: Sun, 18 May 2025 22:51:39 GMT